User: anonymous   Login
Location: Mentone
(34.5413°N, 85.5351°W)
Time: 12:12:44
(UTC-05:00)
Language:

SL-8 R/B - Orbit

View from above orbital plane
View from above orbital plane
View from above satellite
View from above satellite

Ground track
Ground track

The orbit data is extracted from the following two-line orbital elements,

1 33066U 08031G   15115.66532566  .00000431  00000-0  10533-3 0  9995
2 33066 048.4431 174.5046 0007247 042.1299 096.3166 14.69197173367531
Epoch (UTC): 25 April 2015 15:58:04
Eccentricity: 0.0007247
inclination: 48.4431°
perigee height: 658 km
apogee height: 669 km
right ascension of ascending node: 174.5046°
argument of perigee: 42.1299°
revolutions per day: 14.69197173
mean anomaly at epoch: 96.3166°
orbit number at epoch: 36753

The dashed part of the orbit path shows where the satellite is in the earth's shadow,  

DLR